Regional Weather Roundup
Issued by NWS

Home | Current Version | Previous Version | Graphics & Text | Print | Product List | Glossary On
Versions: 1 2 3 4 5 6 7 8 9 10 11 12 13 14 15 16 17 18 19 20 21 22 23 24 25 26 27 28 29 30 31 32 33 34 35 36 37 38 39 40 41 42 43 44 45 46 47 48 49 50
000
ASUS45 KABQ 170810
RWRNM
NEW MEXICO REGIONAL WEATHER ROUNDUP
NATIONAL WEATHER SERVICE ALBUQUERQUE NM
100 AM MST SAT FEB 17 2018

NOTE: "FAIR" MEANS FEW OR NO CLOUDS BELOW 12,000 FEET AGL WITH NO
       SIGNIFICANT WEATHER OR OBSTRUCTIONS TO VISION.

      THIS PRODUCT IS RELEASED AS TWO VERSIONS.  ONE VERSION NEAR
      THE TOP OF THE HOUR CONTAINING PRELIMINARY DATA FROM ALBUQUERQUE
      AND OTHER STATIONS.  A FINAL VERSION WITH ADDITIONAL DATA IS
      ISSUED ABOUT 10 MINUTES AFTER THE HOUR.

NMZ501-503-504-510>518-170900-
NORTHWEST PLATEAU/NORTHCENTRAL MOUNTAINS

CITY           SKY/WX    TMP DP  RH WIND       PRES   REMARKS
FARMINGTON     FAIR      23  15  71 CALM      30.16R
LOS ALAMOS     FAIR      34  28  77 CALM      30.15R
SANTA FE       FAIR      35  33  92 CALM      30.13R
TAOS           FAIR      32  26  78 CALM      30.15R
ANGEL FIRE     FAIR      29  21  73 W22G28    30.05R WCI  15

$$
NMZ402-403-502-505>509-170900-
WESTCENTRAL MOUNTAINS/SOUTHWEST MOUNTAINS

CITY           SKY/WX    TMP DP  RH WIND       PRES   REMARKS
GALLUP         CLOUDY    35  33  92 SW8       30.19R WCI  29
GRANTS         FAIR      31  28  88 W7        30.19R WCI  24
SILVER CITY    CLOUDY    46  44  93 NW6       30.17S

$$
NMZ407-409-411-412-170900-
SOUTHERN DESERTS

CITY           SKY/WX    TMP DP  RH WIND       PRES   REMARKS
DEMING         NOT AVBL
LAS CRUCES     CLOUDY    47  47 100 SW3       30.17R
ALAMOGORDO     FOG       46  46 100 W6        30.15R VSB 1/2
T OR C         CLOUDY    46  45  96 CALM      30.15R

$$
NMZ519>523-170900-
CENTRAL VALLEYS/CENTRAL HIGHLANDS

CITY           SKY/WX    TMP DP  RH WIND       PRES   REMARKS
ALBUQUERQUE    CLOUDY    41  37  86 CALM      30.16R
MORIARTY ARPT  FAIR      38  34  85 NW6       30.14R WCI  34
CLINES CORNERS FAIR      32  30  92 W28G33    30.08S WCI  18
BELEN          FOG       40  40 100 S3        30.15R VSB 1/4
SOCORRO        MOCLDY    42  41  97 CALM      30.15S

$$
NMZ524>526-539-540-170900-
SOUTHCENTRAL MOUNTAINS

CITY           SKY/WX    TMP DP  RH WIND       PRES   REMARKS
RUIDOSO        NOT AVBL

$$
NMZ527>531-170900-
NORTHEAST HIGHLANDS/NORTHEAST PLAINS

CITY           SKY/WX    TMP DP  RH WIND       PRES   REMARKS
LAS VEGAS      FAIR      30  20  66 SW3       30.00R
RATON          FAIR      29  21  72 E10       29.91S WCI  20
CLAYTON        FAIR      36  32  85 SW15      29.89R WCI  27

$$
NMZ532>537-170900-
EASTCENTRAL PLAINS

CITY           SKY/WX    TMP DP  RH WIND       PRES   REMARKS
SANTA ROSA     FAIR      43  37  81 SW12      30.02S
TUCUMCARI      FAIR      43  38  82 SW21G32   29.95F
CANNON AFB     FAIR      37  37 100 W13       30.04F WCI  29
CLOVIS AIRPORT NOT AVBL

$$
NMZ028-029-538-170900-
SOUTHEAST PLAINS

CITY           SKY/WX    TMP DP  RH WIND       PRES   REMARKS
ROSWELL        FAIR      42  40  92 S10       30.08F
ARTESIA        FAIR      41  41 100 S12       30.11F
CARLSBAD       FAIR      43  43 100 S3        30.13F
HOBBS          MOCLDY    41  37  87 SW6       30.12F


$$




USA.gov is the U.S. government's official web portal to all federal, state and local government web resources and services.